TAM3126 SBSP-SBCF

Flight info

Callsign TAM3126
Flight time 0h 52m
Altitude 33000
Route NUXEL UZ23 KIBAP
Aircraft A320/M-SDE3FGHIRWY/LB1

Departure

Time 2026-05-03 22:32
Airport Congonhas–Deputado Freitas Nobre Airport (SBSP)

Arrival

Time 2026-05-03 23:24
Airport Tancredo Neves International Airport (SBCF)
Time Latitude Longitude Altitude Speed Heading
2026-05-03 22:11 -23.62920 -46.65776 2601 ft 0 kts 328°
2026-05-03 22:22 -23.62934 -46.65767 2600 ft 4 kts 329°
2026-05-03 22:23 -23.62957 -46.65756 2600 ft 4 kts 10°
2026-05-03 22:23 -23.62971 -46.65768 2600 ft 4 kts 57°
2026-05-03 22:23 -23.62975 -46.65776 2600 ft 0 kts 57°
2026-05-03 22:24 -23.62974 -46.65774 2600 ft 1 kts 57°
2026-05-03 22:25 -23.62964 -46.65757 2600 ft 4 kts 58°
2026-05-03 22:25 -23.62942 -46.65718 2601 ft 8 kts 58°
2026-05-03 22:25 -23.62908 -46.65660 2601 ft 10 kts 57°
2026-05-03 22:25 -23.62849 -46.65630 2603 ft 12 kts 340°
2026-05-03 22:26 -23.62765 -46.65686 2603 ft 15 kts 328°
2026-05-03 22:26 -23.62664 -46.65756 2602 ft 13 kts 326°
2026-05-03 22:26 -23.62586 -46.65811 2602 ft 13 kts 328°
2026-05-03 22:26 -23.62498 -46.65872 2601 ft 16 kts 328°
2026-05-03 22:27 -23.62417 -46.65926 2601 ft 16 kts 327°
2026-05-03 22:27 -23.62338 -46.65982 2600 ft 12 kts 327°
2026-05-03 22:27 -23.62262 -46.66034 2600 ft 10 kts 329°
2026-05-03 22:27 -23.62204 -46.66066 2599 ft 9 kts 330°
2026-05-03 22:28 -23.62152 -46.66102 2599 ft 9 kts 327°
2026-05-03 22:28 -23.62120 -46.66125 2594 ft 0 kts 327°
2026-05-03 22:28 -23.62096 -46.66138 2595 ft 13 kts 342°
2026-05-03 22:29 -23.62047 -46.66079 2592 ft 13 kts 130°
2026-05-03 22:29 -23.62080 -46.66053 2594 ft 0 kts 147°
2026-05-03 22:31 -23.62081 -46.66052 2597 ft 2 kts 147°
2026-05-03 22:31 -23.62223 -46.65954 2600 ft 63 kts 147°
2026-05-03 22:31 -23.62817 -46.65542 2609 ft 136 kts 147°
2026-05-03 22:32 -23.63683 -46.64921 3054 ft 154 kts 146°
2026-05-03 22:32 -23.64585 -46.64227 3649 ft 167 kts 137°
2026-05-03 22:32 -23.65317 -46.63134 3964 ft 191 kts 121°
2026-05-03 22:32 -23.65992 -46.61783 4265 ft 214 kts 118°
2026-05-03 22:33 -23.66687 -46.60307 4678 ft 235 kts 117°
2026-05-03 22:33 -23.67476 -46.58634 5180 ft 259 kts 118°
2026-05-03 22:33 -23.68341 -46.56832 6010 ft 269 kts 118°
2026-05-03 22:33 -23.69229 -46.55014 6970 ft 274 kts 118°
2026-05-03 22:34 -23.70130 -46.53190 7894 ft 279 kts 118°
2026-05-03 22:34 -23.71051 -46.51276 8822 ft 284 kts 113°
2026-05-03 22:34 -23.71632 -46.49226 9708 ft 289 kts 99°
2026-05-03 22:34 -23.71748 -46.46993 10598 ft 296 kts 86°
2026-05-03 22:35 -23.71465 -46.44674 10998 ft 318 kts 81°
2026-05-03 22:35 -23.71109 -46.42283 11692 ft 328 kts 78°
2026-05-03 22:35 -23.70287 -46.39926 12483 ft 333 kts 57°
2026-05-03 22:35 -23.68756 -46.38060 13253 ft 337 kts 36°
2026-05-03 22:36 -23.66671 -46.36880 13995 ft 341 kts 19°
2026-05-03 22:36 -23.64430 -46.35975 14727 ft 347 kts 19°
2026-05-03 22:36 -23.62137 -46.35071 15401 ft 354 kts 18°
2026-05-03 22:36 -23.59799 -46.34157 16084 ft 359 kts 18°
2026-05-03 22:37 -23.57430 -46.33231 16790 ft 364 kts 18°
2026-05-03 22:37 -23.55041 -46.32286 17485 ft 368 kts 18°
2026-05-03 22:37 -23.52623 -46.31320 18173 ft 372 kts 18°
2026-05-03 22:37 -23.50180 -46.30341 18846 ft 376 kts 18°
2026-05-03 22:38 -23.47711 -46.29354 19465 ft 381 kts 18°
2026-05-03 22:38 -23.45201 -46.28353 20059 ft 386 kts 18°
2026-05-03 22:38 -23.42654 -46.27339 20643 ft 391 kts 18°
2026-05-03 22:38 -23.40091 -46.26319 21209 ft 396 kts 18°
2026-05-03 22:39 -23.37474 -46.25276 21758 ft 402 kts 18°
2026-05-03 22:39 -23.34837 -46.24223 22313 ft 406 kts 18°
2026-05-03 22:39 -23.32166 -46.23159 22859 ft 411 kts 18°
2026-05-03 22:39 -23.29467 -46.22085 23400 ft 415 kts 17°
2026-05-03 22:40 -23.26736 -46.21000 23926 ft 420 kts 17°
2026-05-03 22:40 -23.23977 -46.19901 24451 ft 425 kts 17°
2026-05-03 22:40 -23.21193 -46.18791 24976 ft 428 kts 17°
2026-05-03 22:40 -23.18391 -46.17674 25523 ft 431 kts 17°
2026-05-03 22:41 -23.15568 -46.16553 26056 ft 433 kts 17°
2026-05-03 22:41 -23.12731 -46.15434 26572 ft 435 kts 16°
2026-05-03 22:41 -23.09878 -46.14313 27067 ft 437 kts 16°
2026-05-03 22:41 -23.07010 -46.13184 27552 ft 439 kts 16°
2026-05-03 22:42 -23.04134 -46.12046 28016 ft 441 kts 16°
2026-05-03 22:42 -23.01240 -46.10899 28455 ft 443 kts 16°
2026-05-03 22:42 -22.98332 -46.09747 28889 ft 446 kts 16°
2026-05-03 22:42 -22.95413 -46.08588 29323 ft 448 kts 16°
2026-05-03 22:43 -22.92476 -46.07424 29737 ft 450 kts 16°
2026-05-03 22:43 -22.89563 -46.06272 30139 ft 452 kts 15°
2026-05-03 22:43 -22.86601 -46.05104 30530 ft 454 kts 15°
2026-05-03 22:43 -22.83624 -46.03929 30900 ft 456 kts 15°
2026-05-03 22:44 -22.80632 -46.02751 31251 ft 459 kts 16°
2026-05-03 22:44 -22.77622 -46.01564 31600 ft 461 kts 16°
2026-05-03 22:44 -22.74602 -46.00373 32001 ft 461 kts 16°
2026-05-03 22:44 -22.71594 -45.99186 32493 ft 460 kts 16°
2026-05-03 22:45 -22.68592 -45.98003 32970 ft 458 kts 16°
2026-05-03 22:45 -22.65596 -45.96824 33211 ft 458 kts 16°
2026-05-03 22:45 -22.62625 -45.95654 33266 ft 448 kts 16°
2026-05-03 22:45 -22.59747 -45.94515 33267 ft 434 kts 16°
2026-05-03 22:46 -22.56935 -45.93403 33262 ft 428 kts 15°
2026-05-03 22:46 -22.51365 -45.91220 33250 ft 425 kts 15°
2026-05-03 22:47 -22.45806 -45.89044 33244 ft 424 kts 15°
2026-05-03 22:47 -22.40251 -45.86864 33238 ft 424 kts 15°
2026-05-03 22:48 -22.34701 -45.84687 33235 ft 425 kts 15°
2026-05-03 22:48 -22.29176 -45.82419 33227 ft 427 kts 23°
2026-05-03 22:49 -22.24267 -45.78729 33230 ft 433 kts 35°
2026-05-03 22:49 -22.19575 -45.74657 33227 ft 433 kts 35°
2026-05-03 22:50 -22.14881 -45.70589 33228 ft 433 kts 35°
2026-05-03 22:50 -22.10204 -45.66553 33228 ft 433 kts 35°
2026-05-03 22:51 -22.05493 -45.62496 33227 ft 434 kts 35°
2026-05-03 22:51 -22.00772 -45.58426 33230 ft 434 kts 35°
2026-05-03 22:52 -21.96060 -45.54361 33242 ft 434 kts 35°
2026-05-03 22:52 -21.91340 -45.50299 33221 ft 435 kts 35°
2026-05-03 22:53 -21.86589 -45.46220 33212 ft 439 kts 35°
2026-05-03 22:53 -21.81801 -45.42113 33209 ft 441 kts 35°
2026-05-03 22:54 -21.76994 -45.37988 33204 ft 443 kts 35°
2026-05-03 22:54 -21.72173 -45.33852 33204 ft 443 kts 35°
2026-05-03 22:55 -21.67346 -45.29721 33209 ft 443 kts 35°
2026-05-03 22:55 -21.62513 -45.25596 33212 ft 444 kts 35°
2026-05-03 22:56 -21.57711 -45.21489 33216 ft 444 kts 35°
2026-05-03 22:56 -21.52877 -45.17354 33219 ft 445 kts 35°
2026-05-03 22:57 -21.48028 -45.13221 33223 ft 444 kts 35°
2026-05-03 22:57 -21.43191 -45.09097 33222 ft 444 kts 35°
2026-05-03 22:58 -21.38354 -45.04979 33228 ft 444 kts 35°
2026-05-03 22:58 -21.33517 -45.00868 33232 ft 444 kts 35°
2026-05-03 22:59 -21.28668 -44.96758 33233 ft 444 kts 35°
2026-05-03 22:59 -21.23863 -44.92673 33235 ft 444 kts 35°
2026-05-03 23:00 -21.19023 -44.88560 33230 ft 444 kts 35°
2026-05-03 23:00 -21.16598 -44.86504 32713 ft 445 kts 35°
2026-05-03 23:00 -21.14181 -44.84452 32268 ft 441 kts 35°
2026-05-03 23:00 -21.11789 -44.82421 31810 ft 436 kts 35°
2026-05-03 23:01 -21.09423 -44.80416 31358 ft 432 kts 35°
2026-05-03 23:01 -21.07069 -44.78424 30904 ft 429 kts 35°
2026-05-03 23:01 -21.04732 -44.76454 30462 ft 425 kts 34°
2026-05-03 23:01 -21.02380 -44.74558 30029 ft 422 kts 33°
2026-05-03 23:02 -21.00007 -44.72733 29573 ft 419 kts 32°
2026-05-03 23:02 -20.97628 -44.70950 29140 ft 416 kts 32°
2026-05-03 23:02 -20.95259 -44.69188 28704 ft 413 kts 32°
2026-05-03 23:02 -20.92911 -44.67434 28276 ft 411 kts 32°
2026-05-03 23:03 -20.91365 -44.66271 27983 ft 409 kts 32°
2026-05-03 23:03 -20.88273 -44.63925 27414 ft 406 kts 33°
2026-05-03 23:03 -20.86010 -44.62196 26992 ft 403 kts 33°
2026-05-03 23:03 -20.83739 -44.60456 26569 ft 400 kts 33°
2026-05-03 23:04 -20.81487 -44.58735 26154 ft 397 kts 32°
2026-05-03 23:04 -20.79114 -44.57276 25740 ft 391 kts 21°
2026-05-03 23:04 -20.76565 -44.56340 25334 ft 385 kts 11°
2026-05-03 23:04 -20.74815 -44.55870 25064 ft 384 kts 11°
2026-05-03 23:05 -20.72234 -44.55176 24665 ft 382 kts 11°
2026-05-03 23:05 -20.69663 -44.54483 24265 ft 380 kts 12°
2026-05-03 23:05 -20.67110 -44.53791 23867 ft 377 kts 12°
2026-05-03 23:05 -20.64606 -44.53111 23474 ft 375 kts 12°
2026-05-03 23:06 -20.62080 -44.52425 23078 ft 373 kts 12°
2026-05-03 23:06 -20.59574 -44.51743 22692 ft 370 kts 12°
2026-05-03 23:06 -20.57086 -44.51066 22300 ft 368 kts 12°
2026-05-03 23:06 -20.54580 -44.50387 21909 ft 366 kts 12°
2026-05-03 23:07 -20.52150 -44.49731 21528 ft 364 kts 12°
2026-05-03 23:07 -20.49710 -44.49070 21146 ft 361 kts 12°
2026-05-03 23:07 -20.47284 -44.48413 20767 ft 358 kts 12°
2026-05-03 23:07 -20.44870 -44.47760 20396 ft 356 kts 12°
2026-05-03 23:08 -20.42476 -44.47114 20015 ft 354 kts 12°
2026-05-03 23:08 -20.40094 -44.46471 19646 ft 352 kts 12°
2026-05-03 23:08 -20.37729 -44.45830 19277 ft 350 kts 12°
2026-05-03 23:08 -20.35381 -44.45192 18916 ft 347 kts 13°
2026-05-03 23:09 -20.33014 -44.44547 18543 ft 345 kts 13°
2026-05-03 23:09 -20.30726 -44.43924 18185 ft 343 kts 13°
2026-05-03 23:09 -20.28418 -44.43294 17823 ft 341 kts 13°
2026-05-03 23:09 -20.26126 -44.42669 17464 ft 339 kts 13°
2026-05-03 23:10 -20.23861 -44.42055 17109 ft 337 kts 13°
2026-05-03 23:10 -20.21592 -44.41441 16753 ft 335 kts 13°
2026-05-03 23:10 -20.19341 -44.40832 16400 ft 333 kts 13°
2026-05-03 23:10 -20.17073 -44.40216 16045 ft 331 kts 13°
2026-05-03 23:11 -20.14879 -44.39619 15705 ft 329 kts 13°
2026-05-03 23:11 -20.12667 -44.39017 15361 ft 327 kts 13°
2026-05-03 23:11 -20.10470 -44.38419 15021 ft 325 kts 13°
2026-05-03 23:11 -20.08282 -44.37826 14682 ft 323 kts 13°
2026-05-03 23:12 -20.06111 -44.37240 14335 ft 322 kts 14°
2026-05-03 23:12 -20.03947 -44.36653 13985 ft 320 kts 14°
2026-05-03 23:12 -20.01791 -44.36068 13586 ft 320 kts 14°
2026-05-03 23:12 -19.99637 -44.35485 13196 ft 319 kts 14°
2026-05-03 23:13 -19.97489 -44.34902 12808 ft 317 kts 14°
2026-05-03 23:13 -19.95358 -44.34325 12425 ft 316 kts 14°
2026-05-03 23:13 -19.93235 -44.33752 12036 ft 314 kts 14°
2026-05-03 23:13 -19.91137 -44.33189 11664 ft 312 kts 14°
2026-05-03 23:14 -19.89042 -44.32626 11286 ft 309 kts 14°
2026-05-03 23:14 -19.86965 -44.32066 10973 ft 305 kts 14°
2026-05-03 23:14 -19.84914 -44.31512 10757 ft 303 kts 14°
2026-05-03 23:14 -19.82879 -44.30962 10524 ft 301 kts 14°
2026-05-03 23:15 -19.80851 -44.30414 10284 ft 300 kts 15°
2026-05-03 23:15 -19.78836 -44.29867 10066 ft 298 kts 15°
2026-05-03 23:15 -19.76842 -44.29285 9823 ft 296 kts 21°
2026-05-03 23:15 -19.75006 -44.28316 9589 ft 294 kts 31°
2026-05-03 23:16 -19.73251 -44.27208 9361 ft 293 kts 31°
2026-05-03 23:16 -19.71497 -44.26107 9134 ft 292 kts 31°
2026-05-03 23:16 -19.69748 -44.25012 8900 ft 292 kts 31°
2026-05-03 23:16 -19.68002 -44.23918 8673 ft 291 kts 31°
2026-05-03 23:17 -19.66285 -44.22839 8410 ft 290 kts 31°
2026-05-03 23:17 -19.64543 -44.21768 8045 ft 287 kts 30°
2026-05-03 23:17 -19.62800 -44.20795 7809 ft 278 kts 28°
2026-05-03 23:17 -19.61102 -44.19893 7595 ft 269 kts 27°
2026-05-03 23:18 -19.59458 -44.19030 7392 ft 259 kts 27°
2026-05-03 23:18 -19.57865 -44.18196 7192 ft 251 kts 27°
2026-05-03 23:18 -19.56381 -44.17287 6997 ft 242 kts 40°
2026-05-03 23:18 -19.55232 -44.16057 6754 ft 236 kts 50°
2026-05-03 23:19 -19.54157 -44.14760 6510 ft 232 kts 50°
2026-05-03 23:19 -19.53100 -44.13489 6271 ft 228 kts 50°
2026-05-03 23:19 -19.52058 -44.12237 6033 ft 224 kts 50°
2026-05-03 23:19 -19.51057 -44.10990 5809 ft 219 kts 58°
2026-05-03 23:20 -19.50644 -44.09520 5600 ft 205 kts 95°
2026-05-03 23:20 -19.51157 -44.08184 5367 ft 194 kts 132°
2026-05-03 23:20 -19.52133 -44.07257 5215 ft 182 kts 139°
2026-05-03 23:20 -19.53055 -44.06404 5079 ft 169 kts 139°
2026-05-03 23:21 -19.53902 -44.05622 4913 ft 154 kts 138°
2026-05-03 23:21 -19.54688 -44.04897 4716 ft 146 kts 138°
2026-05-03 23:21 -19.55447 -44.04196 4525 ft 144 kts 138°
2026-05-03 23:21 -19.56197 -44.03503 4332 ft 142 kts 138°
2026-05-03 23:22 -19.57684 -44.02130 3960 ft 142 kts 138°
2026-05-03 23:22 -19.58429 -44.01443 3772 ft 142 kts 138°
2026-05-03 23:22 -19.59172 -44.00756 3581 ft 141 kts 138°
2026-05-03 23:23 -19.59911 -44.00070 3389 ft 141 kts 138°
2026-05-03 23:23 -19.60649 -43.99387 3206 ft 140 kts 137°
2026-05-03 23:23 -19.61378 -43.98698 3032 ft 140 kts 138°
2026-05-03 23:23 -19.62118 -43.98027 2844 ft 140 kts 139°
2026-05-03 23:24 -19.62833 -43.97365 2759 ft 125 kts 138°
2026-05-03 23:24 -19.63318 -43.96923 2753 ft 50 kts 139°
2026-05-03 23:24 -19.63494 -43.96755 2751 ft 32 kts 133°
2026-05-03 23:24 -19.63601 -43.96550 2752 ft 32 kts 104°
2026-05-03 23:25 -19.63613 -43.96368 2753 ft 19 kts 49°
2026-05-03 23:25 -19.63495 -43.96292 2753 ft 21 kts 28°
2026-05-03 23:25 -19.63412 -43.96248 2753 ft 0 kts 25°